GFSNIL_sfc_30mbdewp_114.txt.gz
Dewpoint
37 38 39 41 42 45 47 50 53 59 60 63 63 63 63 63 63 63 62 61 60 59
36 37 38 39 41 43 45 48 51 55 60 63 63 63 62 63 62 63 62 62 61 60
35 36 38 40 41 43 44 47 50 53 58 62 63 63 63 62 62 62 62 61 59 60
35 35 38 39 41 44 47 48 49 53 57 61 62 63 63 62 61 61 62 62 61 59
33 34 36 37 40 43 46 54 52 55 58 59 61 62 62 61 61 60 60 61 61 60
32 33 34 36 37 39 44 48 56 58 58 59 59 59 62 62 62 62 61 61 60 59
31 31 32 34 35 35 38 40 42 52 56 58 61 61 61 61 61 61 60 60 59 58
30 30 31 32 32 33 33 35 38 38 39 41 45 48 59 61 61 60 56 50 46 42
30 29 29 29 30 30 31 30 32 34 35 35 35 39 51 60 59 53 48 42 39 38
31 29 28 27 27 27 28 29 28 30 32 33 33 34 37 42 44 43 43 41 39 38
30 30 30 28 27 26 26 26 26 27 28 30 32 33 32 33 33 32 32 32 33 33
30 29 30 29 29 28 27 26 26 26 26 26 28 31 32 30 29 28 28 30 31 31
29 28 29 29 30 30 29 28 27 26 27 27 26 28 29 29 28 26 26 27 28 30
27 26 27 28 29 29 28 27 26 26 26 27 28 28 28 27 25 25 24 25 26 28

GFSNIL_sfc_30mbdewp_117.txt.gz
Dewpoint
34 34 35 36 37 38 40 41 43 45 48 50 53 60 61 61 61 62 62 61 61 60
33 33 34 36 36 37 39 40 42 44 46 49 51 56 60 60 59 63 63 62 61 60
32 33 34 35 36 38 39 41 42 43 44 47 50 54 60 58 59 60 62 62 62 61
32 33 34 35 36 38 39 41 42 44 46 47 49 52 59 59 58 58 59 61 61 60
32 32 33 33 35 36 37 39 42 46 48 49 49 52 59 61 59 58 59 61 61 59
31 31 31 32 33 34 35 37 39 40 46 51 51 53 57 59 60 60 59 60 60 60
31 30 30 30 31 32 33 33 35 38 39 43 47 54 58 58 57 57 59 59 60 60
31 31 29 28 28 29 30 32 32 33 35 36 37 41 48 55 56 57 58 54 52 51
31 31 30 29 28 27 27 29 30 30 32 33 33 36 43 54 57 53 48 43 39 39
30 30 30 30 29 28 27 27 27 28 29 30 32 32 34 35 35 36 38 40 40 37
28 29 29 29 28 28 27 27 27 27 28 28 29 32 31 31 31 30 31 32 34 35
26 26 27 26 27 27 26 25 25 26 27 27 28 29 30 30 28 28 28 29 30 31
23 23 24 26 25 26 26 24 24 24 25 26 27 30 28 27 28 27 27 28 29 30
21 20 21 21 23 21 22 22 22 22 23 24 26 28 30 29 26 26 26 26 27 29

GFSNIL_sfc_30mbdewp_123.txt.gz
Dewpoint
30 30 31 32 32 33 34 35 36 37 39 40 41 42 42 43 46 49 50 60 59 58
29 30 31 32 32 33 34 35 36 37 38 39 40 42 42 42 42 46 50 51 60 58
29 29 30 31 31 32 33 34 35 36 36 37 39 40 42 43 43 44 48 51 56 59
29 29 29 29 30 30 31 32 33 34 35 35 36 39 41 42 43 44 46 50 52 57
29 30 29 29 29 30 30 31 31 32 33 34 36 37 40 41 44 46 47 48 50 54
27 28 29 29 28 29 29 29 30 31 31 31 33 34 36 39 41 44 47 49 50 51
26 27 27 28 28 28 28 27 28 29 30 30 31 32 33 35 38 42 50 50 51 52
26 26 27 26 27 27 27 26 26 27 29 30 30 31 33 36 39 41 50 50 49 48
24 24 25 25 25 25 25 25 26 26 28 29 29 32 32 34 36 37 38 39 38 37
22 22 22 23 22 22 23 23 24 25 27 28 29 31 31 31 31 31 32 32 33 32
19 19 19 20 21 21 22 22 23 24 25 26 28 30 30 31 30 29 29 29 30 31
18 17 18 18 18 19 21 21 23 24 24 25 26 29 29 28 27 27 27 28 29 29
19 18 18 18 18 18 20 21 22 21 22 24 24 28 28 26 26 24 24 26 27 29
20 19 19 20 20 19 18 19 20 20 20 21 21 22 24 24 23 23 22 23 24 26

GFSNIL_sfc_30mbdewp_129.txt.gz
Dewpoint
30 29 30 30 29 30 30 31 32 33 33 34 35 37 38 39 41 42 42 42 44 46
28 29 29 29 29 29 30 30 31 31 32 33 34 35 37 37 38 40 42 43 44 44
27 29 28 29 28 27 28 29 29 30 31 32 33 34 34 36 37 38 40 42 44 44
26 28 26 27 27 27 27 28 28 29 29 31 31 32 32 33 34 37 39 41 42 44
26 26 25 25 26 26 26 27 27 28 29 29 30 31 31 32 33 34 35 37 40 43
25 25 25 25 25 25 25 25 25 26 27 28 30 30 31 31 32 33 34 35 36 40
24 25 26 26 26 25 25 25 25 26 27 28 31 29 30 31 31 32 34 37 37 38
21 22 23 24 24 25 25 25 25 26 26 28 29 29 29 28 29 30 31 34 36 38
20 20 21 21 21 22 23 24 24 24 24 25 28 28 28 28 27 27 28 29 30 31
20 20 21 20 20 21 22 22 21 22 23 24 26 28 26 27 26 25 25 26 27 27
20 20 20 20 20 21 21 21 21 21 22 21 23 24 25 24 25 24 24 25 26 26
20 19 20 20 19 19 19 20 20 20 20 21 21 21 21 21 22 22 22 23 25 25
20 20 20 19 18 17 18 17 18 19 19 19 20 20 18 19 19 18 19 19 21 23
20 19 20 19 18 17 16 16 16 16 17 18 18 18 17 16 18 17 17 17 17 18

GFSNIL_sfc_30mbdewp_132.txt.gz
Dewpoint
30 30 29 30 30 30 30 30 31 31 32 34 35 35 36 37 38 39 40 41 42 42
29 29 28 29 29 28 29 29 29 30 31 32 33 34 34 35 36 37 38 40 41 42
28 28 28 28 28 28 28 28 28 29 29 29 30 31 32 33 34 35 36 37 39 41
28 28 28 27 27 27 27 27 27 27 28 28 28 29 30 30 31 32 34 36 38 39
28 28 27 27 27 27 26 27 26 27 27 27 27 27 28 28 31 32 33 34 34 36
27 27 27 27 27 27 26 26 25 26 26 28 28 26 27 28 28 30 31 33 35 36
24 24 25 26 26 27 26 25 25 25 25 27 27 26 26 27 26 26 29 31 32 37
23 22 22 23 23 24 24 24 24 24 24 26 26 28 26 26 25 25 26 28 29 30
22 22 22 22 22 23 23 23 23 23 23 24 25 26 26 26 25 24 24 25 26 28
21 21 21 22 21 22 23 22 21 22 23 23 24 22 24 25 25 23 23 24 24 25
20 20 20 20 20 21 22 21 20 19 21 21 22 21 20 21 23 23 22 22 24 24
21 20 20 19 19 20 19 19 18 18 18 18 19 18 19 20 20 20 20 21 22 23
21 20 19 19 19 19 20 18 18 17 17 17 18 15 15 17 19 18 18 18 19 19
21 20 20 20 19 19 18 18 17 17 18 18 17 17 13 13 16 16 15 16 16 17